PEGASUS DEB, 24985

Orbit data source: Space-Track

PEGASUS DEB, 24985 is space debris in LEO originally from a launch on Thu, 19 May 1994 UTC launched from the Air Force Western Test Range (AFWTR). Debris objects in space refer to the collection of defunct objects orbiting the Earth. Examples of debris include non-operational satellites, rocket bodies, and fragments generated from explosions, collisions, or faulty payload assembly.

Loading next visibility...
Identifier
24985, 1994-029ACT
Orbit
LEO
Country
Flag of USUS
Related business
Manufacturer
Unknown
Mission
Spacecraft
Bus & Motor
Unknown
Mass
Unknown
Launch date (UTC)
1994-05-19 (32 years ago)
Launch vehicle
Unknown
Launch site
Air Force Western Test Range (AFWTR)
Object type
Payload
Rocket body
Debris
Shape & HBR
Unknown shape, 0.1 m
Radar Cross Section
Small (<0.1 m²)

Expand to show TLE details & history
Last TLE update: 1 day ago

TLE from 1 day ago
0 PEGASUS DEB
1 24985U 94029ACT 26061.97885079  .00006662  00000-0  20254-2 0  9995
2 24985  81.5079 260.4792 0603789 213.3806 142.7889 13.70077626584630
Epoch: 2026-03-02T23:29Z
TLE epoch observation values (Epoch: 2026-03-02T23:29:32.708Z)
Latitude
-0.00001°
Longitude
107.32841°
Altitude
1,366.13 km
Speed
6.997 km/s
True Right ascension
17h 21m 55s
True Declination
0° 00' 00"
Sunlit
Object was in daylight at epoch
Visualization orbit readout
Latitude
Unknown
Longitude
Unknown
Altitude
Unknown
Speed
Unknown
Apparent Right ascension
Unknown
Apparent Declination
Unknown
Sunlit
N/A
Visualization observer readout
Local Sidereal Time
07:56:38
Azimuth
Unknown
Elevation
Unknown
Doppler factor
Unknown
Orbital elements
Apogee altitude
1,441.765 km
Perigee altitude
551.221 km
Semi-major axis
7,374.63 km
Eccentricity
0.06038
Inclination
81.5079°
RAAN
260.4792°
Arg. of periapsis
213.3806°
True anomaly
146.73231°
Mean anomaly
142.7889°
Eccentric anomaly
144.78384°
Mean motion
3.42715 °/min
Orbital period
105.04 mins
BSTAR
0.0020254
Loading maneuver chart data...
Computing Atmospheric mass density...
Loading historical data...
Loading historical data...
Loading historical data...
Loading historical data...
Loading historical data...
Loading historical data...
Loading historical data...

Documentation

Showing up to 5 results
|